Regional Weather Roundup
Issued by NWS Kansas City/Pleasant Hill, MO

Home | Current Version | Previous Version | Text Only | Print | Product List | Glossary On
Versions: 1 2 3 4 5 6 7 8 9 10 11 12 13 14 15 16 17 18 19 20 21 22 23 24 25 26 27 28 29 30 31 32 33 34 35 36 37 38 39 40 41 42 43 44 45 46 47 48 49 50
000
ASUS43 KEAX 230610
RWREAX

WEATHER ROUNDUP FOR EASTERN KANSAS AND NORTHWEST MISSOURI
NATIONAL WEATHER SERVICE KANSAS CITY/PLEASANT HILL MO
100 AM CDT SAT AUG 23 2014

KSZ040-057-103>105-MOZ028-029-037-043-230700-
...KANSAS CITY METROPOLITAN AREA...

CITY           SKY/WX    TMP DP  RH WIND       PRES   REMARKS
K.C. INTL      MOCLDY    81  70  69 SE7       29.92F
6HR MIN TEMP:  80; 6HR MAX TEMP:  89;

K.C. DOWNTOWN  FAIR      82  69  64 CALM      29.91S
6HR MIN TEMP:  81; 6HR MAX TEMP:  92;

LEES SUMMIT    FAIR      78  67  68 SE6       29.93F
6HR MIN TEMP:  76; 6HR MAX TEMP:  88;

OLATHE - IXD   FAIR      78  70  76 SE10      29.92F
6HR MIN TEMP:  76; 6HR MAX TEMP:  80;

OLATHE - OJC   FAIR      75  69  81 SE6       29.92F
6HR MIN TEMP:  75; 6HR MAX TEMP:  80;

LAWRENCE       FAIR      78  70  76 E6        29.90F

$$

MOZ001>008-011>017-020>025-030>033-038>040-044>046-053-054-230700-
...NORTHERN AND CENTRAL MISSOURI...

CITY           SKY/WX    TMP DP  RH WIND       PRES   REMARKS
ST. JOSEPH     FAIR      80  76  87 SE5       29.90F
6HR MIN TEMP:  77; 6HR MAX TEMP:  84;

MOSBY          FAIR      79  75  89 CALM      29.92S
WHITEMAN AFB   FAIR      76  69  79 S3        29.94S
6HR MIN TEMP:  75; 6HR MAX TEMP:  89; 6HR PCP: TRACE;

CLINTON        FAIR      75  73  94 CALM      29.95F
SEDALIA        FAIR      79  75  87 S5        29.96R
6HR MIN TEMP:  78; 6HR MAX TEMP:  90;

WARSAW         NOT AVBL
MARSHALL       FAIR      82  81  94 E3        29.94F HX  95
CHILLICOTHE      N/A     80  77  90 SE3       29.93F
6HR MIN TEMP:  78; 6HR MAX TEMP:  87;

MOBERLY        FAIR      77  73  88 E5        29.96S
KIRKSVILLE     FAIR      77  75  93 S3        29.96S FOG
6HR MIN TEMP:  77; 6HR MAX TEMP:  86;


$$

MOZ041-047>049-056>058-063>065-088>090-097-230700-
...EASTERN AND SOUTHERN MISSOURI...

CITY           SKY/WX    TMP DP  RH WIND       PRES   REMARKS
ST. LOUIS INTL MOCLDY    82  78  88 CALM      29.94S HX  91
6HR MIN TEMP:  82; 6HR MAX TEMP:  91;

SPIRIT OF STL  FAIR      78  76  93 CALM      29.92S
COLUMBIA       FAIR      79  76  90 CALM      29.95R
JEFFERSON CITY FAIR      79  76  90 N3        29.93R
MEXICO         FAIR     N/A N/A N/A CALM      29.95S
HANNIBAL       FAIR      81  77  89 CALM      29.94F
ROLLA          FAIR      78  69  73 S9        29.96S
LEBANON        FAIR      81  70  69 SW6       30.00S
OSAGE BEACH    FAIR      79  70  73 S3        29.97R
SPRINGFIELD    FAIR      79  71  76 S8        29.99S
BRANSON        FAIR      79  73  83 S5        30.02S
NEVADA         FAIR      75  72  88 S5        29.96S
JOPLIN         FAIR      82  70  66 S13       29.96F
WEST PLAINS    FAIR      78  70  76 SW5       30.02S

$$

IAZ060-094-KSZ022-034>040-054-083-096-NEZ052-066-093-230700-
...KANSAS...SOUTHEAST NEBRASKA AND IOWA...

CITY           SKY/WX    TMP DP  RH WIND       PRES   REMARKS
TOPEKA         FAIR      79  74  84 E5        29.89F
6HR MIN TEMP:  79; 6HR MAX TEMP:  89;

MANHATTAN      FAIR      82  69  64 E5        29.87F
EMPORIA        FAIR      77  71  82 S13       29.91S
CHANUTE        FAIR      81  71  71 S10       29.93S
WICHITA        FAIR      82  65  56 S13       29.89S
OMAHA          CLOUDY    77  73  87 S5        29.93R THUNDER
LINCOLN        CLOUDY    73  68  84 NW14G28   29.97R
FALLS CITY     FAIR      75  73  93 SE6       29.88F
LAMONI         FAIR      78  75  90 CALM      29.93F
DES MOINES     FAIR      78  75  90 NE3       29.93S

$$




USA.gov is the U.S. government's official web portal to all federal, state and local government web resources and services.